La Route des Hèlviens - 18/05/2014

Petit parcours 128 km


Pl Do. Nom - Surname Prénom - Name S-Cat /cat Club - Team TEMPS - Time Km/h /sx
1 229 MARC BENOIT PIERRE MD 1 ALL BIKE 03:32:27 36,15 1
2 114 CHATAIN Axel MC 1 Afinois-Pelussin UC 03:32:32 36,13 2
3 143 ROUZET Fabrice ME 1 Béssèges VS 03:32:33 36,13 3
4 170 KANEL FLORIAN MC 2 SPRINTER NIMOIS 03:32:33 36,13 4
5 99 MERLE Julien MD 2 Salindres VC 03:32:33 36,13 5
6 24 MANTA Guillaume MC 3 Garlaban VTT 03:32:35 36,13 6
7 31 HERNANDEZ Franck ME 2 COCGP 30 03:32:35 36,12 7
8 218 DAVID CORENTIN MC 4 VALENCE TRI 03:32:36 36,12 8
9 39 WACHEUX Tanguy MC 5 Arles VC 03:32:36 36,12 9
10 103 GUIHUIT Marian MF 1 Salindres VC 03:32:37 36,12 10
11 210 JANUIN FLORENT MC 6 VC AUBENAS 03:32:37 36,12 11
12 67 SOLER Fred ME 3 Pernes CV 03:32:38 36,12 12
13 209 ROMEY GEROME MD 3 VC AUBENAS 03:32:41 36,11 13
14 196 SANDA STEPHANE ME 4 UA CARPENTRAS 03:32:44 36,10 14
15 230 GONTHIER CEDRIC MD 4 VS ARDECHE 03:32:48 36,09 15
16 73 MAURICE Grégoire MD 5 Nîmes VCTC 03:32:50 36,08 16
17 217 LE PEURIEN PHILIPPE MF 2 M SANTE 03:33:01 36,05 17
18 108 CHAPELLE Jérémy MD 6 Salindres VC 03:33:24 35,99 18
19 164 VANDENEIJNDE DANIEL MF 3 ECW 03:35:10 35,69 19
20 134 SAINZ André MG 1 NL 03:35:12 35,69 20
21 28 EKINDJIAN Stéphane ME 5 Garlaban VTT 03:35:12 35,69 21
22 152 PALOT Eric ME 6 Tarascon GO 03:35:13 35,68 22
23 23 VINCENT Jean-François ME 7 Garlaban VTT 03:35:15 35,68 23
24 10 AIGON Sébastien MC 7 Salindres VC 03:35:15 35,68 24
25 111 MENICHINI Joël ME 8 Pernes CV 03:35:15 35,68 25
26 146 ROUZET Eric MF 4 Béssèges VS 03:35:15 35,68 26
27 221 FOLI Alexandre MC 8 CV PERNES 03:35:15 35,68 27
28 110 CASAJUST Xavier ME 9 Ventoux VS 03:35:16 35,68 28
29 172 CARABASSE JEREMIE MD 7 VCPM 03:35:16 35,68 29
30 124 GUYOMARD François MD 8 Cavaillon Véloroc 03:35:17 35,67 30
31 140 FRANDEMICHE Yvan ME 10 Couxois CS 03:35:18 35,67 31
32 43 LAURES Bruno MD 9 Arles VC 03:35:20 35,66 32
33 204 ULLERN YOANN MD 10 AO BAGARD 03:35:31 35,64 33
34 116 RENVOISE David MD 11 Lunel Bike 03:35:32 35,63 34
35 142 CLIMENT Sébastien MD 12 Pernes CV 03:35:47 35,59 35
36 197 GRAZIANO Olivier ME 11 VTT GARLABAN 03:37:57 35,24 36
37 84 BRUNEL Morgan ME 12 Les 3 C 03:38:01 35,23 37
38 185 DANIS MAXIME MC 9   03:38:16 35,19 38
39 139 DUMAS Sébastien MD 13 Salindres VC 03:39:32 34,98 39
40 98 BOUCHET Alexandre ME 13 Corconne AC 03:39:35 34,97 40
41 106 GAILLARD Franck MF 5 Salindres VC 03:39:39 34,96 41
42 162 BLANCHY NICOLAS MF 6 TDCH 03:42:00 34,59 42
43 25 SAINTENOY Eric MD 14 Garlaban VTT 03:42:04 34,58 43
44 154 ROBOTTI Guillaume MD 15 Tarascon GO 03:42:05 34,58 44
45 88 GILLET Romuald ME 14 Montélimar SJVC 03:42:13 34,56 45
46 174 CHABERT REGIS MD 16 ATELIER DU CYCLISTE 03:42:20 34,54 46
47 121 ROMA Patrick ME 15 Loriol VC 03:42:24 34,53 47
48 17 BAXTER John-Paul ME 16 Ayr Road CC 03:42:40 34,49 48
49 100 MAURIN Laurent ME 17 Salindres VC 03:43:22 34,38 49
50 20 FATTORE Raymond MF 7 Garlaban VTT 03:43:23 34,38 50
51 188 ROUSSEL Romain MD 17 VC SPIRIPONTAIN 03:43:27 34,37 51
52 21 BEAUMONT Philippe MF 8 Garlaban VTT 03:43:31 34,36 52
53 22 NENZI Jacques ME 18 Garlaban VTT 03:43:38 34,34 53
54 27 GALLO Christian MF 9 Garlaban VTT 03:43:39 34,34 54
55 85 FLOURET Rémi MG 2 Les 3 C 03:43:41 34,33 55
56 101 COSTA Cyril ME 19 Salindres VC 03:43:43 34,33 56
57 53 GALLEN Hervé MF 10 Vitrolles VC 03:43:44 34,33 57
58 195 GRAZIANO BERNARD MF 11 VTT GARLABAN 03:43:46 34,32 1
59 208 LINQUETTE BERTRAND ME 20 LA VOULTE 03:43:53 34,30 2
60 159 BLANCHY SERGE ME 21 TDCH 03:47:51 33,71 58
61 137 BALLATORE Gérard MF 12 Arles VC 03:48:28 33,61 59
62 205 BABE MICHAEL MD 18 USCV VAISON 03:48:29 33,61 60
63 173 ELH HAJJI HAMID ME 22   03:48:33 33,60 61
64 215 ENGSTER JEAN MC 10 LUNEL VP 03:48:34 33,60 62
65 132 CALLET Jean-Philippe ME 23 Uzès VC 03:48:34 33,60 63
66 141 JOUFFRET Didier MF 13 ST Peray CC 03:48:35 33,60 64
67 169 FREAU DENIS MG 3 CC PIOLENC 03:48:35 33,60 65
68 118 GUEZE Christophe ME 24 Loriol VC 03:48:38 33,59 66
69 55 LORETTE Christophe MF 14 Orange CC 03:48:42 33,58 67
70 187 DANIS THIBAUT MC 11   03:48:43 33,58 68
71 11 BLANC Sébastien MD 19 Morières VP 03:48:47 33,57 69
72 165 MOUYART FREDERIC ME 25 SER VELO TEAM 03:48:49 33,56 70
73 93 MARTINS-OLIVERA José MD 20 Les Angles VC 03:49:13 33,50 71
74 64 PEREZ Philippe ME 26 Pernes CV 03:50:32 33,31 72
75 190 BAYLE JEAN MARC ME 27 BEAUMES DE VENISE 03:51:56 33,11 73
76 107 FORINO Mickael MC 12 Salindres VC 03:53:30 32,89 74
77 145 BLANC Chfistian ME 28 Béssèges VS 03:53:33 32,88 75
78 177 BARRY JULIEN MD 21 CC DONATIEN 03:53:54 32,83 76
79 63 PEREZ Patrick ME 29 Pernes CV 03:53:56 32,83 77
80 156 VALENTIN Hervé MD 22 Tarascon GO 03:54:05 32,81 78
81 160 PIMENTA MARCO ME 30 TDCH 03:54:10 32,80 79
82 71 PELLECUER Eric MF 15 Nîmes VCTC 03:54:10 32,80 80
83 153 MURCIA David ME 31 Tarascon GO 03:55:22 32,63 81
84 211 BAYOL Laurent ME 32 VC MIRAMAS 03:55:22 32,63 82
85 44 CADET Frédéric ME 33 Arles VC 03:56:29 32,47 83
86 220 SMARGIASSI SEBASTIEN MC 13 FORZA SEB 03:56:30 32,47 84
87 47 PIERRE Dominique MG 4 Arles VC 03:56:33 32,46 85
88 74 MAYORDOMO Franck ME 34 Alès VC 03:56:46 32,44 86
89 168 RUIZ VALENTIN MC 14 MT AIGOUAL 03:57:25 32,35 87
90 91 PALAZZUOLI Nicolas ME 35 Les Angles VC 03:57:26 32,34 88
91 19 OUSIA Jean-Louis MF 16 Montmeyran-Valence UC 03:57:29 32,34 89
92 119 MERY Jean-Charles ME 36 Loriol VC 03:57:31 32,33 90
93 83 BLAIZE Olivier ME 37 Les 3 C 03:57:35 32,32 91
94 18 MC ALISTER Alex MF 17 Ayr Road CC 03:57:49 32,29 92
95 178 RENAUD LIONEL ME 38 ECSC ST CLAIROISE 03:58:08 32,25 93
96 228 MAUCUER OLIVIER ME 39 VCPV 03:58:14 32,24 94
97 161 TROIANO MICHAEL MD 23 TDCH 03:58:16 32,23 95
98 15 CAUSSEL Lilian ME 40 La Flèche du Midi 03:58:16 32,23 96
99 227 RIBOT MAITE FB 1 VCPV 03:58:20 32,22 1
100 41 ALLASSEUX Raymond MF 18 Arles VC 03:58:20 32,22 97
101 186 DANIS Christophe MF 19   03:58:21 32,22 98
102 6 CAPELIER Philippe MF 20 Spiripontain VC 03:58:24 32,21 99
103 1 THOPART Christophe ME 41 Amiens SC 03:58:26 32,21 100
104 148 SAVAJOLS Jean-Marc MF 21 Béssèges VS 03:58:27 32,21 101
105 202 RIMOUX JEAN LUC MF 22 AC TOURRETTES 03:58:31 32,20 102
106 76 SUBIRANA Philippe ME 42 Les 3 C 03:58:33 32,19 103
107 96 CRESPO Denis ME 43 Les Angles VC 03:58:33 32,19 104
108 150 GAGNE Mickaël MC 15 ORTF AS 04:00:18 31,96 105
109 176 DESMURS FREDERIC ME 44 SCS CAVAILLON 04:00:19 31,96 106
110 115 CHATAIN Luc MF 23 St Rambert VC 04:00:21 31,95 107
111 112 WISNIEWSKI Georges MG 5 Val de Cèze VC 04:00:23 31,95 108
112 157 CORSETTI CAMILLE MF 24 VCBJ 04:00:24 31,95 109
113 52 CLEMENT Pierre MG 6 C'Pro Sport 04:00:24 31,95 110
114 69 BOISSIER Ludovic ME 45 Nîmes VCTC 04:00:24 31,94 111
115 206 DAVID Patrick MF 25   04:00:25 31,94 112
116 117 BANCEL Lionel ME 46 Loriol VC 04:00:26 31,94 113
117 130 ROUAUD David ME 47 Uzès VC 04:00:27 31,94 114
118 123 CAHUET Pierre MF 26 Les Angles VC 04:00:27 31,94 115
119 104 BERNARDI Laurent ME 48 Salindres VC 04:00:28 31,94 116
120 166 LE GOFF SYLVAIN MF 27   04:00:34 31,92 117
121 198 WINTRICH STEPHANE MD 24 VC RAMBERTOIS 04:00:43 31,90 118
122 97 LACOUR Laurent ME 49 Fleche du Midi 04:01:22 31,82 119
123 214 LAFRAISE Laurent ME 50 LUNEL VP 04:01:33 31,79 120
124 194 DELAIGUE Eric ME 51 BEAUMES DE VENISE 04:03:27 31,54 121
125 29 ESPANET Patrick ME 52 Garlaban VTT 04:04:45 31,38 122
126 56 GILLES Laurent ME 53 Barjac CNG 04:05:45 31,25 123
127 213 CHAUZU LUDOVIC ME 54 LUNEL VP 04:06:09 31,20 124
128 95 ROMERO Pablo MD 25 Les Angles VC 04:06:24 31,17 125
129 7 RUIZ Alain MG 7 Spiripontain VC 04:06:25 31,17 126
130 32 CHARMASSON Ruben MF 28 Barjac CNG 04:06:26 31,16 127
131 40 TUSOLI Nonce MF 29 Arles VC 04:06:27 31,16 128
132 42 VANEL Christophe ME 55 Arles VC 04:06:28 31,16 129
133 92 PERINET Christian MF 30 Les Angles VC 04:06:46 31,12 130
134 203 PEYRO MICHEL MF 31 UC PIERRELATTE 04:07:35 31,02 131
135 79 CONSTANT Dorian ME 56 Les 3 C 04:08:43 30,88 132
136 126 CAMERA Thierry ME 57 Morières VP 04:08:46 30,87 133
137 78 QUENET Jean-Louis ME 58 Les 3 C 04:08:51 30,86 134
138 3 LAVILLE Philippe MF 32 Saint-Peray CC 04:08:52 30,86 135
139 183 BANDINI BRUNO MF 33 VC SPIRIPONTAIN 04:08:55 30,85 136
140 75 LEFRANCOIS Thierry MD 26 Les 3 C 04:09:09 30,82 137
141 212 BONNET GUILLAUME MC 16 LUNEL VP 04:10:02 30,71 138
142 207 BORDES REGIS ME 59 AO BAGARD 04:10:17 30,69 139
143 54 MEJEAN Fabrice ME 60 Couxois CS 04:11:25 30,55 140
144 125 LOZE Yves MG 8 Nîmes AVC 04:12:27 30,42 141
145 184 DONZE ANDRE MF 34 VAISON USCV 04:12:27 30,42 142
146 144 TEYSSIER Gilles ME 61 Béssèges VS 04:13:42 30,27 143
147 219 DOLLADILLE Christophe ME 62 VSGA 04:14:27 30,18 144
148 82 JEAN Alexandre MD 27 Les 3 C 04:14:30 30,18 145
149 200 OUILLON BRUNO MG 9 LE PUY 04:14:35 30,17 146
150 61 RASCLARD Daniel MF 35 Vaison UCS 04:15:08 30,10 147
151 66 MARTIN Romain MC 17 Pernes CV 04:15:40 30,04 148
152 122 SIINO Pascal ME 63 Loriol VC 04:15:40 30,04 149
153 182 DANIS Pascal MG 10   04:15:42 30,03 150
154 191 JAUFFRET MAURICE MF 36 CAVAILLON CYCLO SPORT 04:16:54 29,89 151
155 216 CARUSO JEAN MARC ME 64 LUNEL VP 04:17:13 29,86 152
156 68 FLORES Joaquiim ME 65 Nîmes VCTC 04:19:53 29,55 153
157 65 BOTTGEN Alain ME 66 Pernes CV 04:21:04 29,42 154
158 8 ANDRE Stéphane ME 67 NL 04:21:16 29,39 155
159 133 VLIEGHE Pierre ME 68 Les Angles VC 04:21:34 29,36 156
160 158 ADAMCZYK CHRISTOPHE MD 28 TDCH Belge 04:22:01 29,31 157
161 171 AFFRE JEAN CLAUDE MG 11   04:22:29 29,26 158
162 167 YVER CLAUDE MG 12 USC BERG 04:22:29 29,26 159
163 147 SAN FILIPPO Fabien MD 29 Béssèges VS 04:22:30 29,26 3
164 72 DURAND Stéphane ME 69 Nîmes VCTC 04:22:34 29,25 160
165 127 BREL Romain MG 13 Uzès VC 04:23:26 29,15 161
166 48 LOUIS Nicolas ME 70 Arles VC 04:24:03 29,09 162
167 193 JULLIAN FREDERIC MF 37 TRI CLUB ISLOIS 04:26:00 28,87 163
168 36 BERNAL Joseph MF 38 Arles VC 04:26:55 28,77 164
169 9 PIROLA Hervé MF 39 NL 04:26:56 28,77 165
170 16 CAUSSEL Louis MG 14 La Flèche du Midi 04:26:57 28,77 166
171 222 CARRIER Laurent MF 40 USCV VAISON 04:27:01 28,76 167
172 131 ORIVELLE Denis MG 15 Uzès VC 04:27:03 28,76 168
173 136 CABASSE Christophe ME 71 Arles VC 04:27:11 28,74 169
174 37 POUJOL Eric MF 41 Arles VC 04:27:16 28,73 170
175 189 ROUX ADELINE FA 1 VCTG 04:27:27 28,71 2
176 59 GIRGENTI Sylvie FB 2 Vaison UCS 04:27:29 28,71 3
177 226 LEBRAT JOEL ME 72 UC ST SATURNIN 04:29:00 28,55 171
178 33 DARET Christine FB 3 Vaison UCS 04:29:03 28,54 4
179 87 STIEN Julie FA 2 Vaison UCS 04:30:41 28,37 5
180 199 HENNION CEDRIC ME 73 VC MONTELIMAR 04:31:16 28,31 172
181 81 POUDEVIGNE Laurent ME 74 Les 3 C 04:31:32 28,28 173
182 50 RAY Georges MG 16 Gazelec Gardois 04:34:28 27,98 174
183 80 AGUILAR Georges MF 42 Les 3 C 04:36:20 27,79 175
184 45 COULOMB Gérard MF 43 Arles VC 04:36:31 27,77 176
185 90 THOULOUZE Philippe ME 75 Les Angles VC 04:36:40 27,76 177
186 38 WACHEUX Jean-Paul MF 44 Arles VC 04:38:43 27,55 178
187 128 VIALA Jean-Luc ME 76 Uzès VC 04:39:19 27,50 179
188 163 FONTAINE FREDERIC ME 77 TDCH 04:40:39 27,36 180
189 223 GRAND BRUNO ME 78 USCV 04:42:07 27,22 181
190 225 MIZRAHI DAVID ME 79 USCV 04:42:07 27,22 182
191 109 TASTAVIN Ofélie FA 3 St Mathieu-de-Tréviers VVC 04:50:25 26,44 6
192 224 MAGNIN MAGALI FA 4 ALL BIKE 04:50:39 26,42 7
193 180 GAFFET JEAN CLAUDE MG 17   04:51:05 26,38 183
194 181 GAFFET Laurent ME 80   04:51:06 26,38 184
195 62 VIGER Véronique FB 4 Vaison UCS 04:52:07 26,29 8
196 60 MARTINO Jean MG 18 Vaison UCS 04:52:08 26,29 185
197 129 NAV Pierre MG 19 Uzès VC 04:53:09 26,20 186
198 46 TROUSSY Norbert MG 20 Arles VC 04:53:40 26,15 187
199 120 SCALA Olivier ME 81 Loriol VC 05:03:14 25,33 188
200 57 CISSE Christian MG 21 Vaison UCS 05:03:19 25,32 189
201 151 RAFE régis ME 82 Avignon-Le Pontet Tri 05:05:34 25,13 190
202 175 MARIOTTI ADRIEN MD 30   05:08:24 24,90 191
203 179 MICHEL LIONEL MD 31   05:08:55 24,86 192
204 49 MAURICE Robert MG 22 Gazelec Gardois 05:10:24 24,74 193
205 13 AYNARD Jean-Marie MF 45 NL 05:17:18 24,20 194
206 135 CATARSI Christian MG 23 Arles VC 05:17:26 24,19 195
207 51 HENRY Gérard MF 46 Gazelec Gardois 05:17:28 24,19 196
208 12 BONICEL Catherine FB 5 NL 05:17:29 24,19 9
209 30 CHEIKH-ROUHOU Mohamed MG 24 NL 05:27:17 23,47 197
210 201 RAMIREZ Christian MG 25 CC ALTHEN 05:29:04 23,34 198
211 192 RAMIREZ DAVID ME 83 CAVAILLON CYCLO SPORT 05:29:04 23,34 199
212 26 BERTRAND Didier ME 84 Garlaban VTT 06:48:42 18,79 200